Das Wetter in  D-61279 Heinzenberg / Taunus





Wetter Minimum- & Maximum-Werte im Februar 2007

Standort: Heinzenberg / Taunus - Höhe 297 m         8 24' 1" Ost 50 21' 51" Nord
(   3-stündige Aktualisierung    letzte Aktualisierung um 19:04 am 28.02.2007  )


Messgrösse

Minimum

Maximum

Durchschnitt

Temperatur West /
Luftfeuchte West
Anklicken für Monats-Diagramm

-4,1 C

07:49
05.02.2007

56 %

15:46
06.02.2007

13,6 C

14:03
23.02.2007

96 %

06:07
02.02.2007

Temp

4,8 C

Feuchte

85 %

Temperatur Ost /
Luftfeuchte Ost
Anklicken für Monats-Diagramm

-3,8 C

07:20
05.02.2007

--

--
--

13,6 C

13:53
23.02.2007

--

--
--

4,8 C

--

Luftdruck Anklicken für Monats-Diagramm

991,9 hPa

14:38
08.02.2007

1037,2 hPa

11:38
03.02.2007

1011,9 hPa

Taupunkt

-4,9 C

07:49
05.02.2007

8,4 C

01:33
28.02.2007

2,5 C

Windchill
( gefühlte Temperatur )

-10,1 C

11:43
08.02.2007

13,4 C

15:51
21.02.2007

1,4 C

Windgeschwindigkeit /
Windrichtung
Anklicken für Monats-Diagramm

---

54,5 km/h / W-SW

13:23
28.02.2007

10,1 km/h
W-SW

Helligkeit /
Sonnenschein
Anklicken für Monats-Diagramm
Anklicken für Monats-Diagramm

Sonnenschein:

72:06 Stunden

Max: 8:25 Std am
18.02.2007

87,7 klux

12:48
28.02.2007

15,1 klux

Solarstrahlung Anklicken für Monats-Diagramm

---

600 W/m

12:48
28.02.2007

114 W/m

Regenmenge
    Februar 2007
Anklicken für Monats-Diagramm

Insgesamt 71,9 l/m

in 80:28 Stunden
an 19 Tagen

11,9 l/m

19:36
11.02.2007

Gesamtmenge

71,9 l/m

Regen-Tage
    Februar 2007
Anklicken für Monats-Diagramm

>   0 mm/Tag

>   2 mm/Tag

>   5 mm/Tag

> 10 mm/Tag

> 20 mm/Tag

19 Tage     
10 Tage     
6 Tage     
  1 Tag     
0 Tage     

Eisige Tage Februar 2007 / 2006

Tmin ≤ -10C     

0 Tage

/

0 Tage

Eistage Februar 2007 / 2006

Tmax <     0C     

0 Tage

/

- - Tage

Frosttage Februar 2007 / 2006

Tmin ≤     0C     

8 Tage

/

- - Tage

Kalte Tage Februar 2007 / 2006

Tmax <   10C     

17 Tage

/

- - Tage

Warme Tage Februar 2007 / 2006

Tmax ≥   20C     

0 Tage

/

0 Tage

Sommertage Februar 2007 / 2006

Tmax ≥   25C     

0 Tage

/

- - Tage

Heisse Tage Februar 2007 / 2006

Tmax ≥   30C     

0 Tage

/

- - Tage


Monatsdiagramm Februar 2007

Die Kurven zeigen den Durchschnittswert des jeweiligen Tages an


Wetter-Monatsübersicht Februar 2007
Datum
  Temperatur
   Luftdruck
   Wind
  Regen
   Luftfeuchte
   Helligkeit

Sonnen-
schein


Temp.

Min.
Temp.

Max.
Temp.


Luftdruck

Min.
Luftdruck

Max.
Luftdruck

-Geschw.
Haupt-Richtg.

Max.
Wind

Menge /
Dauer


Feuchte

Min.
Feuchte

Max.
Feuchte


Helligkeit

Max.
Helligkeit

1.
Februar
6,4 C4,9 C
01:31
10,8 C
13:46
1027,2 hPa1022,6 hPa
00:01
1030,8 hPa
21:36
6,9 km/h
W
22,8 km/h
00:01  
---
15 Minuten
83 %61 %
13:51
94 %
08:26
19,3 klux60,6 klux
13:41
4:10 Std 
2.
Februar
7,2 C5,4 C
23:58
8,5 C
10:57
1030,4 hPa1029,6 hPa
08:07
1033,0 hPa
23:58
6,8 km/h
W
24,5 km/h
17:32  
---
1:20 Stunden
94 %87 %
00:02
96 %
06:07
3,6 klux9,0 klux
11:27
--- 
3.
Februar
4,4 C1,5 C
06:38
6,7 C
15:03
1035,4 hPa1033,0 hPa
00:03
1037,2 hPa
11:38
5,2 km/h
NW
19,3 km/h
14:23  
---
86 %78 %
15:33
93 %
00:03
9,67 klux41,30 klux
10:08
50 Min 
4.
Februar
3,4 C-1,8 C
23:00
6,9 C
13:34
1032,1 hPa1025,7 hPa
23:20
1035,5 hPa
01:39
0,5 km/h
SO
8,4 km/h
15:14  
---
88 %76 %
14:34
94 %
09:19
7,3 klux15,7 klux
15:09
--- 
5.
Februar
0,0 C-4,1 C
07:49
3,4 C
15:50
1016,5 hPa1011,7 hPa
20:05
1025,7 hPa
00:25
4,7 km/h
W
22,9 km/h
13:35  
---
1:00 Stunden
93 %90 %
13:35
95 %
09:15
4,0 klux11,1 klux
13:25
--- 
6.
Februar
1,9 C0,3 C
23:57
6,4 C
15:41
1006,9 hPa1003,5 hPa
21:47
1011,7 hPa
00:01
2,2 km/h
W
13,1 km/h
15:56  
0,3 l/m
4:15 Stunden
84 %56 %
15:46
94 %
04:06
16,4 klux51,6 klux
13:11
2:04 Std 
7.
Februar
0,5 C-0,8 C
23:43
1,6 C
14:22
1001,0 hPa1000,3 hPa
14:22
1002,6 hPa
00:02
0,9 km/h
W
13,2 km/h
12:42  
3,8 l/m
5:05 Stunden
93 %90 %
00:02
95 %
10:17
6,3 klux26,4 klux
14:02
--- 
8.
Februar
1,2 C-1,9 C
05:08
4,6 C
15:38
996,7 hPa991,9 hPa
14:38
1001,7 hPa
00:48
9,4 km/h
W-SW
34,6 km/h
17:53  
1,7 l/m
3:15 Stunden
91 %82 %
19:58
95 %
01:08
9,4 klux70,2 klux
14:03
1:20 Std 
9.
Februar
3,8 C0,5 C
23:40
6,5 C
14:54
1004,1 hPa998,0 hPa
00:29
1008,7 hPa
21:05
13,6 km/h
W-SW
32,6 km/h
10:58  
---
79 %66 %
14:34
87 %
23:30
11,0 klux58,4 klux
13:04
15 Min 
10.
Februar
3,2 C0,3 C
01:20
6,4 C
15:35
1006,2 hPa1004,3 hPa
09:55
1008,2 hPa
19:50
1,6 km/h
W-SW
22,0 km/h
22:16  
5,0 l/m
8:05 Stunden
93 %87 %
00:00
96 %
12:15
6,9 klux30,5 klux
15:25
10 Min 
11.
Februar
6,2 C4,6 C
12:06
8,0 C
14:41
1002,2 hPa998,5 hPa
14:41
1009,2 hPa
00:31
16,5 km/h
SW
39,8 km/h
11:56  
11,9 l/m
6:36 Stunden
91 %85 %
14:46
94 %
03:06
7,2 klux35,1 klux
14:21
20 Min 
12.
Februar
7,1 C5,8 C
08:42
9,7 C
15:27
996,6 hPa993,1 hPa
15:27
1002,9 hPa
01:57
20,2 km/h
W-SW
49,6 km/h
22:08  
7,8 l/m
6:01 Stunden
87 %76 %
15:57
95 %
06:37
14,0 klux60,1 klux
12:07
1:55 Std 
13.
Februar
6,1 C4,8 C
10:23
8,0 C
14:43
1005,3 hPa995,4 hPa
00:48
1013,4 hPa
23:59
23,3 km/h
W
50,2 km/h
01:38  
6,7 l/m
6:26 Stunden
87 %74 %
00:48
95 %
15:58
18,4 klux77,7 klux
12:03
2:36 Std 
14.
Februar
4,6 C2,9 C
03:59
6,0 C
22:45
1006,9 hPa1001,9 hPa
19:54
1013,4 hPa
01:29
7,6 km/h
O-SO
28,2 km/h
23:59  
8,7 l/m
10:33 Stunden
89 %77 %
11:09
96 %
22:15
5,3 klux17,0 klux
12:39
--- 
15.
Februar
5,2 C-1,1 C
23:36
10,6 C
16:15
1020,8 hPa1007,1 hPa
00:05
1027,6 hPa
23:36
15,0 km/h
W-NW
37,7 km/h
00:25  
---
80 %60 %
15:00
94 %
00:05
26,0 klux69,7 klux
13:25
5:55 Std 
16.
Februar
4,0 C-1,8 C
05:21
10,1 C
15:26
1024,0 hPa1020,6 hPa
22:52
1027,7 hPa
01:46
10,8 km/h
O-SO
36,8 km/h
11:46  
---
78 %58 %
15:51
94 %
03:36
29,1 klux60,1 klux
12:21
7:45 Std 
17.
Februar
4,6 C0,6 C
23:53
9,4 C
15:12
1018,0 hPa1016,0 hPa
15:42
1020,7 hPa
01:32
14,2 km/h
O-SO
34,1 km/h
12:07  
---
74 %58 %
13:57
86 %
23:13
26,6 klux58,3 klux
12:17
6:31 Std 
18.
Februar
3,2 C-2,0 C
07:38
11,1 C
14:48
1015,8 hPa1013,6 hPa
14:48
1017,3 hPa
05:18
5,9 km/h
W
22,1 km/h
16:28  
---
84 %63 %
13:38
92 %
07:18
29,8 klux55,1 klux
12:27
8:25 Std 
19.
Februar
3,8 C2,9 C
06:54
4,6 C
16:04
1015,4 hPa1013,4 hPa
16:19
1016,7 hPa
06:54
0,8 km/h
SO
12,0 km/h
13:19  
---
5 Minuten
88 %84 %
13:28
91 %
03:04
4,1 klux10,9 klux
12:19
--- 
20.
Februar
5,5 C0,3 C
23:51
12,0 C
14:25
1012,8 hPa1011,4 hPa
14:25
1014,5 hPa
10:15
1,4 km/h
W-SW
12,1 km/h
12:54  
---
83 %67 %
14:45
91 %
05:30
24,8 klux62,0 klux
11:50
6:40 Std 
21.
Februar
3,8 C-2,5 C
04:31
13,4 C
15:51
1012,9 hPa1010,2 hPa
15:51
1014,4 hPa
04:31
5,7 km/h
W-SW
25,3 km/h
22:22  
1,7 l/m
2:10 Stunden
86 %61 %
15:51
95 %
11:06
30,4 klux58,3 klux
14:01
7:15 Std 
22.
Februar
6,1 C1,1 C
07:42
12,4 C
14:12
1013,2 hPa1011,4 hPa
15:02
1014,9 hPa
08:07
2,9 km/h
W-SW
19,1 km/h
14:17  
---
83 %57 %
15:07
95 %
10:47
26,8 klux68,8 klux
12:07
5:30 Std 
23.
Februar
7,6 C3,1 C
04:58
13,6 C
14:03
1010,4 hPa1007,6 hPa
23:14
1012,5 hPa
04:08
5,1 km/h
O-SO
21,8 km/h
12:23  
0,8 l/m
1:21 Stunden
80 %61 %
14:08
95 %
10:38
26,9 klux68,8 klux
11:43
5:35 Std 
24.
Februar
8,3 C6,8 C
22:50
10,9 C
16:49
1003,5 hPa1001,2 hPa
16:49
1007,9 hPa
01:14
13,5 km/h
W-SW
32,9 km/h
15:24  
4,0 l/m
3:54 Stunden
81 %66 %
09:59
91 %
22:50
11,1 klux51,2 klux
15:19
40 Min 
25.
Februar
7,5 C5,6 C
22:46
10,3 C
16:35
999,4 hPa996,4 hPa
09:15
1003,8 hPa
00:00
20,7 km/h
W-SW
46,7 km/h
10:25  
4,9 l/m
2:35 Stunden
82 %59 %
16:40
93 %
10:55
15,6 klux75,0 klux
13:00
2:10 Std 
26.
Februar
5,8 C4,3 C
02:21
7,6 C
16:06
1006,9 hPa1000,8 hPa
00:16
1014,4 hPa
23:47
20,2 km/h
W
33,6 km/h
14:46  
3,8 l/m
6:10 Stunden
89 %79 %
14:36
94 %
02:56
8,1 klux36,5 klux
15:56
15 Min 
27.
Februar
4,6 C2,8 C
07:27
7,8 C
23:58
1013,1 hPa1003,7 hPa
23:58
1017,5 hPa
10:57
17,5 km/h
W
37,2 km/h
13:27  
9,7 l/m
9:47 Stunden
89 %71 %
13:22
95 %
18:27
10,8 klux47,8 klux
10:07
10 Min 
28.
Februar
9,2 C7,6 C
19:18
12,0 C
12:53
1000,6 hPa998,4 hPa
23:59
1003,7 hPa
00:03
29,8 km/h
W-SW
54,5 km/h
13:23  
1,4 l/m
1:35 Stunden
79 %64 %
13:23
94 %
00:58
14,9 klux87,7 klux
12:48
1:35 Std 



Februar
2007

Temperatur

  

Luftdruck

  

Wind

  

Regen

  

Luftfeuchte

  

Helligkeit

Sonnen-
schein

Min

Max

Min

Max

Max

Max

Min

Max

Max

Max

4,8 C

-4,1 C

07:49 Uhr
05.02.2007

13,6 C

14:03 Uhr
23.02.2007

1011,9 hPa

991,9 hPa

14:38 Uhr
08.02.2007

1037,2 hPa

11:38 Uhr
03.02.2007

10,1 km/h

W-SW

54,5 km/h

13:23 Uhr
28.02.2007

11,9 l/m

6:36 Stunden
11.02.2007

85 %

56 %

15:46 Uhr
06.02.2007

96 %

06:07 Uhr
02.02.2007

15,1 klux

87,7 klux

12:48 Uhr
28.02.2007

8:25 Std

am
18.02.2007

Gesamt

Gesamt

71,9 l/m

19 Tage
80:28 h

72:06 Std


Wetter-Diagramme Februar 2007     Heinzenberg / Taunus   
TemperaturLuftfeuchte
SolarstrahlungLuftdruck
HelligkeitSonnenschein
RegenmengeRegendauer
Wind-GeschwindigkeitWind-Richtung